Ciro Casadei

Главный скаут - Vicenza
4 Июн 2028
Воскресенье
Продолжить

Характер

Адаптивность (5) Амбиции (7) Скандальность (1) Верность (10) Стрессоустойчивость (4) Профессионализм (1) Благородство (17) Темперамент (1)

Профиль

Стиль управления Демократичный
Лицензия Континентальная A
Решительность 10
Управление людьми 6
Мотивация 3
Дисциплина 3
Удовлетворённость
100%
Усталость
0%
Должность Главный скаут
Зарплата 22.5K в нед.
Контракт 14.03.2029

Производительность

Поведение Хорошее
Эффективность тренировок
31%
Развитие игроков
40%
Профилактика травм
25%
Тактическая реализация
30%

Текущее наблюдение

89
Игрок Клуб Статус Способность Уверенность Наблюдений Последнее наблюдение Последний голос
Ramiro Luna Quilmes Активный 118 / 110 40% 1 13.01.2028 -
Francisco Maidana Gimnasia y Esgrima Активный 117 / 123 40% 1 13.01.2028 -
Matías Viguet Maipú Активный 120 / 105 40% 1 13.01.2028 -
Fernando Vega Veracruz Активный 133 / 142 40% 1 09.01.2028 -
Juan Sebastián Herrera Deportivo La Guaira Активный 108 / 106 40% 1 09.01.2028 -
Santiago Patroni Defensores Unidos Активный 100 / 119 40% 1 07.01.2028 -
Nicolás Barrientos All Boys Активный 110 / 129 40% 1 07.01.2028 -
Johan Campaña Patriotas Активный 110 / 109 40% 1 07.01.2028 -
Matteo Sorzi Carpi Активный 104 / 113 40% 5 07.08.2027 -
Roberto Ramírez Godoy Cruz Активный 125 / 111 40% 7 07.08.2027 -
Ruly Grimsby Town Активный 112 / 112 40% 1 07.08.2027 -
Matías Borgogno San Martín SJ Активный 124 / 126 40% 2 05.08.2027 -
Niccolò Chiorra Casarano Активный 102 / 102 40% 6 04.08.2027 -
Matteo Rizzo Campobasso Активный 117 / 126 40% 1 04.08.2027 -
Andrea Zaccagno Torres Активный 113 / 128 40% 4 03.08.2027 -
Frankarlos Benítez Caracas Активный 113 / 129 40% 3 31.07.2027 -
Luca Gemello Perugia Активный 116 / 119 40% 3 30.07.2027 -
Elia Boseggia Novara Активный 112 / 123 40% 2 30.07.2027 -
Beycker Velásquez Zamora Активный 103 / 123 40% 5 28.07.2027 -
Jerónimo Pourtau Estudiantes Активный 118 / 131 40% 1 28.07.2027 -
Davide Merelli Crotone Активный 104 / 117 40% 2 27.07.2027 -
Italo Espinoza San Martín Активный 104 / 97 40% 3 27.07.2027 -
Lorenzo Andrenacci Lumezzane Активный 109 / 119 40% 4 26.07.2027 -
Emiliano González BATE Активный 114 / 132 40% 2 26.07.2027 -
Tommaso Nobile Renate Активный 113 / 101 40% 5 25.07.2027 -
Alejandro Araque Deportivo Tachira Активный 112 / 120 40% 3 23.07.2027 -
Federico Del Frate Virtus Entella Активный 111 / 118 40% 2 19.07.2027 -
Matías Tagliamonte Racing Club Активный 125 / 114 40% 1 19.07.2027 -
Gianluca Saro Foggia Активный 114 / 106 40% 4 18.07.2027 -
Cristopher Fiermarin Defensa y Justicia Активный 121 / 125 40% 1 18.07.2027 -
Sergio Barlocco Trento Активный 112 / 105 40% 3 17.07.2027 -
Álvaro Montero Boca Juniors Активный 128 / 141 40% 1 16.07.2027 -
Samuele Vitale Ascoli Активный 121 / 119 40% 3 15.07.2027 -
Kristjan Matošević Triestina Активный 116 / 107 40% 7 10.07.2027 -
José Álvarez Arsenal Tula Активный 121 / 135 40% 1 10.07.2027 -
Lorenco Šimić Avellino Активный 120 / 121 40% 1 10.07.2027 -
Tomás Porra Barracas Central Активный 109 / 113 40% 1 10.07.2027 -
Leonardo Marson Gubbio Активный 104 / 98 40% 3 07.07.2027 -
Gady Beyuku Modena Активный 119 / 119 40% 1 05.07.2027 -
Sergey Volkov Rodina Активный 101 / 117 40% 2 04.07.2027 -
Lévi Ntumba Slavia Sofia Активный 102 / 103 40% 3 03.07.2027 -
Vitaly Gudiev Akron Активный 102 / 122 40% 2 03.07.2027 -
Rustam Yatimov Rostov Активный 129 / 116 40% 1 02.07.2027 -
Daniele Sommariva Arzignano Активный 103 / 109 40% 1 29.06.2027 -
Ignacio Colombo Zabbar St. Patrick Активный 101 / 103 40% 3 28.06.2027 -
Elia Summa Picerno Активный 109 / 116 40% 2 23.06.2027 -
Emilio Di Fulvio Colegiales Активный 112 / 97 40% 2 23.06.2027 -
Nicolás Schiavi Carrarese Активный 124 / 118 40% 2 22.06.2027 -
Daniil Frolkin Fakel Активный 110 / 119 40% 2 21.06.2027 -
Mauro Casoli Giugliano Активный 111 / 112 40% 1 20.06.2027 -
Daniel Bachmann Watford Активный 126 / 111 40% 1 20.06.2027 -
Fabrizio Alastra Altamura Активный 109 / 117 40% 1 19.06.2027 -
Nikita Medvedev Nizhniy Novgorod Активный 115 / 97 40% 1 16.06.2027 -
Andrea Tiritiello Virtus Entella Активный 122 / 112 40% 3 15.06.2027 -
Sheikh Sibi Virtus Verona Активный 101 / 113 40% 2 15.06.2027 -
Luis Del Pino Mago Caracas Активный 128 / 115 40% 1 15.06.2027 -
Islam Imamov SKA Khabarovsk Активный 88 / 86 40% 1 15.06.2027 -
Alberto Spagnoli Union Brescia Активный 111 / 97 40% 1 14.06.2027 -
Luca Maiorano Ospitaletto Активный 106 / 93 40% 1 14.06.2027 -
Giuseppe Panico Foggia Активный 121 / 101 40% 1 14.06.2027 -
Yohann Magnin CSKA 1948 Активный 116 / 134 40% 2 31.01.2027 -
Thulani Erasmus Ajax Cape Town Активный 120 / 114 40% 2 31.01.2027 -
Ilja Tuseev Chelyabinsk Активный 93 / 112 40% 1 31.01.2027 -
Fernando Fonseca Leixões Активный 112 / 118 40% 1 31.01.2027 -
Ognjen Gašević CSKA 1948 Активный 125 / 98 40% 1 29.01.2027 -
Luca Vignali Virtus Entella Активный 123 / 108 40% 1 29.01.2027 -
Lorenzo Carissoni Padova Активный 127 / 117 40% 1 29.01.2027 -
Hakeem Odoffin Luton Town Активный 117 / 122 40% 2 28.01.2027 -
Kees de Boer Salernitana Активный 109 / 121 40% 1 28.01.2027 -
Andile Phiri Ajax Cape Town Активный 127 / 96 40% 1 28.01.2027 -
Bogdan Ovsyannikov Orenburg Активный 111 / 121 40% 1 26.01.2027 -
Victor De Lucia Casertana Активный 98 / 88 40% 1 24.01.2027 -
Mingiyan Beveev Baltika Активный 105 / 128 40% 1 24.01.2027 -
Maksym Kovaliov Spartak 1918 Активный 105 / 122 40% 1 22.01.2027 -
Arthur Beroe Активный 106 / 116 40% 2 21.01.2027 -
Erick Mothiba Black Aces Активный 96 / 85 40% 2 20.01.2027 -
Nazarii Fedorivskyi Obolon Активный 102 / 110 40% 1 19.01.2027 -
Miloš Brnović Arsenal Tula Активный 107 / 113 40% 1 19.01.2027 -
Peter Kováčik Podbrezova Активный 101 / 116 40% 1 19.01.2027 -
Itumeleng Khune Free State Stars Активный 91 / 94 40% 1 17.01.2027 -
Alessio Pozzi Vis Pesaro Активный 84 / 97 40% 1 17.01.2027 -
Mattia Maita Benevento Активный 117 / 119 40% 1 16.01.2027 -
Andrea Sergio Mazza Giana Erminio Активный 85 / 108 40% 1 14.01.2027 -
Mark Assinor Kryvbas Активный 120 / 94 40% 1 12.01.2027 -
Valerio Boffelli Cavese Активный 99 / 106 40% 1 12.01.2027 -
Roman Vantukh LNZ Активный 105 / 103 40% 1 10.01.2027 -
Ivan Kaliuzhnyi Metalist Активный 125 / 123 40% 1 08.01.2027 -
Lindon Emërllahu Polissia Активный 108 / 134 40% 1 08.01.2027 -
Guillermo Benítez Cerro Porteno Активный 127 / 123 40% 1 03.08.2026 -